[[{"header":{"parameterUnit":"m.s-1","parameterCategory":1,"la1":30.2991,"la2":30.254,"lo1":-89.0895,"lo2":-89.0444,"dy":0.0017,"dx":0.0017,"nx":28,"ny":28,"refTime":"2026-03-04T09:00:00:Z","depth":0,"parameterNumber":2,"parameterNumberName":"U-component_of_WINDS"},"data":[0,0,0,0,0,0,0,0,0,0,0,0,0,0,0,0,0,0,0,0,0,0,0,0,0,0,0,0,0,0,0,0,0,0,0,0,0,0,0,0,0,0,0,0,0,0,0,0,0,0,0,0,0,0,0,0,0,0,-3.8273,-3.8273,0,-3.8304,-3.8304,-3.8304,-3.8234,-3.8232,-3.8229,-3.8227,-3.8258,-3.8261,-3.8264,0,0,0,0,0,0,0,0,0,0,0,0,0,-3.8154,-3.8157,-3.8273,-3.8273,-3.8274,-3.8304,-3.8304,-3.8305,-3.8234,-3.8231,-3.8229,-3.8226,-3.8257,-3.8261,-3.8264,0,0,0,0,0,0,0,0,0,0,0,0,0,-3.8198,-3.8158,-3.8273,-3.8242,-3.824,-3.8304,-3.8304,-3.8305,-3.8235,-3.8231,-3.8228,-3.8225,-3.8256,-3.8261,-3.8265,-3.836,0,0,-3.8278,-3.828,0,0,0,0,0,0,0,0,-3.8195,-3.8202,-3.8246,-3.8244,-3.8242,-3.8261,-3.8274,-3.8323,-3.8236,-3.8237,-3.8227,-3.8223,-3.8262,-3.8266,-3.8279,-3.8361,-3.8363,-3.8279,-3.8281,-3.8283,-3.8285,0,0,0,0,0,0,0,-3.8192,-3.82,-3.8285,-3.8247,-3.8244,-3.8227,-3.823,-3.8283,-3.8268,-3.8236,-3.8231,-3.8236,-3.826,-3.8275,-3.8279,-3.8363,-3.8279,-3.8283,-3.8285,-3.8287,-3.8527,-3.8531,0,0,0,0,0,0,-3.8193,-3.8198,-3.8284,-3.8286,-3.821,-3.8232,-3.8235,-3.8259,-3.8267,-3.8265,-3.8239,-3.8233,-3.8269,-3.8274,-3.828,-3.8392,-3.8283,-3.8287,-3.829,-3.8523,-3.8528,-3.8532,0,0,0,0,0,0,-3.8191,-3.8202,-3.8283,-3.8241,-3.825,-3.8238,-3.8265,-3.8261,-3.8275,-3.8269,-3.8266,-3.8256,-3.8267,-3.8274,-3.8341,-3.8392,-3.8289,-3.8293,-3.8519,-3.8525,-3.853,-3.8617,0,0,0,0,0,0,-3.8188,-3.8201,-3.8236,-3.8242,-3.8252,-3.8343,-3.8268,-3.8264,-3.8283,-3.8275,-3.8285,-3.8283,-3.8265,-3.8335,-3.8345,-3.8397,-3.8297,-3.8514,-3.8522,-3.8528,-3.861,-3.8625,-3.8639,0,0,0,0,0,-3.8184,-3.8259,-3.8238,-3.8249,-3.8296,-3.8346,-3.8352,-3.8329,-3.8288,-3.8323,-3.832,-3.8283,-3.8386,-3.8342,-3.8354,-3.8407,-3.8511,-3.8519,-3.8528,-3.8603,-3.8622,-3.8638,0,0,0,0,0,0,-3.8258,-3.8259,-3.8236,-3.8316,-3.8331,-3.8334,-3.8377,-3.8349,-3.8377,-3.8368,-3.8339,-3.8342,-3.8415,-3.8418,-3.8369,-3.85,-3.8441,-3.8452,-3.8495,-3.8513,-3.8527,-3.8524,-3.83,0,0,0,0,0,-3.8284,-3.8324,-3.8323,-3.8393,-3.8403,-3.839,-3.841,-3.8392,-3.8406,-3.8413,-3.8414,-3.843,-3.8466,-3.849,-3.8523,-3.8611,-3.8612,-3.8654,-3.8668,-3.868,-3.8689,-3.8737,-3.8756,-3.856,-3.8559,-3.8559,0,0,-3.8337,-3.8343,-3.837,-3.8409,-3.8418,-3.8461,-3.8395,-3.8442,-3.8474,-3.842,-3.8483,-3.8485,-3.8501,-3.858,-3.8615,-3.8585,-3.8744,-3.8691,-3.87,-3.8703,-3.8748,-3.8767,-3.8783,-3.8565,-3.8564,-3.8563,0,0,-3.8456,-3.8465,-3.8524,-3.8537,-3.8553,-3.8544,-3.8559,-3.8567,-3.8566,-3.863,-3.8591,-3.8629,-3.8691,-3.8705,-3.872,-3.8849,-3.8816,-3.886,-3.8934,-3.8982,-3.8997,-3.9011,-3.9057,-3.9073,-3.887,-3.887,-3.887,0,-3.852,-3.8582,-3.8559,-3.8609,-3.8628,-3.8583,-3.8644,-3.8657,-3.8684,-3.8698,-3.8665,-3.8744,-3.8751,-3.8833,-3.8865,-3.8879,-3.8895,-3.8857,-3.8997,-3.901,-3.9023,-3.9066,-3.9083,-3.8876,-3.8875,-3.8874,-3.8874,0,-3.866,-3.8704,-3.8751,-3.8779,-3.8803,-3.8859,-3.8845,-3.8872,-3.8853,-3.8849,-3.8915,-3.8924,-3.8958,-3.8977,-3.8958,-3.9057,-3.9038,-3.9002,-3.8941,-3.9047,-3.9087,-3.9104,-3.8883,-3.8881,-3.888,-3.8878,0,0,-3.8822,-3.8839,-3.8856,-3.8869,-3.8886,-3.892,-3.8976,-3.901,-3.9035,-3.9056,-3.9101,-3.9157,-3.9125,-3.9142,-3.9125,-3.9167,-3.9269,-3.9126,-3.9126,-3.9151,-3.9379,-3.9405,-3.9425,-3.9249,-3.9252,-3.9255,-3.9378,0,-3.8938,-3.9032,-3.9015,-3.9107,-3.9148,-3.9108,-3.9156,-3.9173,-3.9171,-3.9206,-3.9205,-3.9245,-3.9199,-3.9209,-3.9249,-3.9248,-3.9314,-3.9239,-3.9291,-3.9293,-3.9286,-3.9446,-3.9473,-3.9588,-3.9393,-3.9396,-3.9398,0,-3.9086,-3.9114,-3.921,-3.9223,-3.924,-3.9283,-3.9315,-3.9349,-3.9368,-3.9364,-3.9386,-3.9362,-3.9418,-3.936,-3.9437,-3.9386,-3.9407,-3.941,-3.9414,-3.9416,-3.935,-3.9451,-3.9625,-3.9642,-3.9423,-3.9421,-3.9419,0,-3.9194,-3.9256,-3.9322,-3.9334,-3.9351,-3.9383,-3.9392,-3.9407,-3.943,-3.9458,-3.9473,-3.9508,-3.9526,-3.9554,-3.9541,-3.9499,-3.9621,-3.9561,-3.9619,-3.9619,-3.9644,-3.9642,-3.9822,-3.966,-3.966,-3.966,-3.9659,0,-3.9325,-3.9385,-3.9371,-3.9411,-3.9478,-3.9459,-3.9526,-3.953,-3.9545,-3.9586,-3.9555,-3.9594,-3.9575,-3.9614,-3.9604,-3.967,-3.9679,-3.9677,-3.9674,-3.9679,-3.9679,-3.969,-3.9681,-3.9664,-3.9663,-3.9662,-3.9662,0,-3.9454,-3.9448,-3.9517,-3.9529,-3.9533,-3.9582,-3.9592,-3.9631,-3.9629,-3.9681,-3.9693,-3.9689,-3.9733,-3.9724,-3.9772,-3.9765,-3.9848,-3.9835,-3.9841,-3.9837,-3.9896,-3.989,-4.0087,-4.0112,-3.9937,-3.9938,-3.994,0,-3.9537,-3.9583,-3.9601,-3.9626,-3.9638,-3.9679,-3.9703,-3.9688,-3.9714,-3.9741,-3.9776,-3.9818,-3.985,-3.9923,-3.9924,-3.9962,-3.9949,-4.0016,-3.9954,-3.9959,-3.9949,-3.9945,-3.995,-4.0027,-4.0029,-4.003,-4.0032,0,-3.9685,-3.968,-3.9715,-3.9751,-3.9781,-3.9808,-3.9832,-3.9855,-3.9842,-3.9873,-3.9918,-3.9944,-3.9994,-4.0036,-4.0072,-4.0081,-4.0055,-4.0052,-4.0067,-4.0072,-4.0073,-4.0073,-3.9873,-4.0047,-4.0045,-4.0044,-4.0043,-4.0043,-3.9793,-3.9832,-3.9851,-3.9893,-3.991,-3.9934,-3.9972,-3.9975,-4.0013,-4.0053,-4.0042,-4.0094,-4.0114,-4.0159,-4.0173,-4.0214,-4.0189,-4.0211,-4.0216,-4.0222,-4.0229,-4.0069,-4.0221,-4.022,-4.022,-4.022,-4.0219,0,-3.9938,-3.9949,-3.9988,-4.0024,-4.0057,-4.0032,-4.0058,-4.0087,-4.0133,-4.0155,-4.0188,-4.0241,-4.0283,-4.029,-4.033,-4.0361,-4.035,-4.0372,-4.0368,-4.0371,-4.0249,-4.0231,-4.038,-4.038,-4.038,-4.038,-4.038,-4.038,-4.0017,-4.0082,-4.0081,-4.0156,-4.0167,-4.0218,-4.0235,-4.0258,-4.0275,-4.0336,-4.0371,-4.0376,-4.0392,-4.0434,-4.0471,-4.0472,-4.0488,-4.0514,-4.0511,-4.0396,-4.0379,-4.0364,-4.0347,-4.0518,-4.0518,-4.0629,-4.063,-4.0631]},{"header":{"parameterUnit":"m.s-1","parameterCategory":1,"la1":30.2991,"la2":30.254,"lo1":-89.0895,"lo2":-89.0444,"dy":0.0017,"dx":0.0017,"nx":28,"ny":28,"refTime":"2026-03-04T09:00:00:Z","depth":0,"parameterNumber":3,"parameterNumberName":"V-component_of_WINDS"},"data":[0,0,0,0,0,0,0,0,0,0,0,0,0,0,0,0,0,0,0,0,0,0,0,0,0,0,0,0,0,0,0,0,0,0,0,0,0,0,0,0,0,0,0,0,0,0,0,0,0,0,0,0,0,0,0,0,0,0,0.9919,0.9919,0,0.9969,0.997,0.997,1.0033,1.0034,1.0035,1.0036,1.0083,1.0083,1.0083,0,0,0,0,0,0,0,0,0,0,0,0,0,0.9873,0.9874,0.9919,0.9919,0.992,0.9969,0.997,0.9971,1.0032,1.0034,1.0035,1.0036,1.0082,1.0083,1.0083,0,0,0,0,0,0,0,0,0,0,0,0,0,0.9905,0.9874,0.9919,0.9957,0.9961,0.9969,0.997,0.9971,1.0032,1.0034,1.0035,1.0037,1.0082,1.0083,1.0083,1.0057,0,0,1.0085,1.0085,0,0,0,0,0,0,0,0,0.9903,0.9907,0.9951,0.9954,0.9959,0.9996,0.9971,0.9999,1.0032,1.0005,1.0036,1.0037,1.0052,1.0055,1.0062,1.0059,1.0061,1.0085,1.0085,1.0085,1.0086,0,0,0,0,0,0,0,0.9901,0.9905,0.9939,0.9951,0.9956,0.9971,0.9977,0.9977,1.0019,1.0007,1.0012,1.0017,1.0055,1.0061,1.0063,1.0062,1.0085,1.0085,1.0086,1.0086,1.0042,1.0041,0,0,0,0,0,0,0.9893,0.9903,0.9937,0.994,0.9934,0.997,0.9977,0.9983,1.002,1.0027,1.0016,1.002,1.0059,1.0062,1.0065,1.0038,1.0085,1.0086,1.0086,1.0044,1.0042,1.0041,0,0,0,0,0,0,0.9892,0.9896,0.9935,0.9923,0.9929,0.997,0.9975,0.9983,0.9989,1.0026,1.0034,1.0015,1.0061,1.0064,1.0059,1.0041,1.0086,1.0087,1.0046,1.0043,1.0041,0.9983,0,0,0,0,0,0,0.9891,0.9895,0.9886,0.9922,0.9929,0.9929,0.9974,0.9983,0.999,0.9996,1.0027,1.0034,1.0062,1.0058,1.006,1.0042,1.0087,1.0047,1.0045,1.0042,0.9987,0.9979,0.9973,0,0,0,0,0,0.9889,0.9866,0.9885,0.9889,0.9919,0.9928,0.9932,0.9966,0.9988,0.9979,1.0004,1.0033,1.0042,1.0057,1.0059,1.0042,1.0049,1.0045,1.0042,0.999,0.9981,0.9973,0,0,0,0,0,0,0.9824,0.9871,0.9893,0.9881,0.99,0.9938,0.9928,0.9955,0.9967,0.9971,1.0013,1.0019,1.0009,1.0025,1.004,1.0019,1.005,1.0047,1.0009,1.0001,0.9994,0.999,1.0087,0,0,0,0,0,0.9808,0.9813,0.9853,0.9839,0.9848,0.9886,0.9891,0.9917,0.9937,0.9945,0.9969,0.9987,0.9995,0.9999,1.0007,0.9989,0.9998,0.9978,0.9971,0.9965,0.9962,0.9956,0.9949,1.003,1.003,1.003,0,0,0.9775,0.9802,0.9802,0.9827,0.9844,0.9848,0.9892,0.9893,0.9896,0.9945,0.9943,0.9961,0.9984,0.9973,0.9969,0.9986,0.9942,0.9961,0.9956,0.9956,0.9952,0.9944,0.9938,1.0028,1.0028,1.0028,0,0,0.9719,0.9739,0.973,0.9748,0.9775,0.9802,0.9799,0.9834,0.9849,0.9848,0.9885,0.9889,0.99,0.9916,0.9925,0.9877,0.9905,0.9879,0.9842,0.9835,0.9829,0.9823,0.9808,0.9801,0.9876,0.9875,0.9875,0,0.9674,0.9682,0.9722,0.9722,0.9732,0.9779,0.9771,0.9785,0.9813,0.9819,0.9837,0.9855,0.9873,0.9868,0.9857,0.9862,0.9862,0.9875,0.9827,0.9822,0.9817,0.9803,0.9797,0.9872,0.9873,0.9873,0.9873,0,0.9627,0.9632,0.9622,0.9651,0.966,0.9655,0.9694,0.9698,0.9723,0.9747,0.9747,0.9771,0.9787,0.9787,0.981,0.9786,0.9795,0.9819,0.9851,0.9806,0.9793,0.9787,0.9868,0.9869,0.987,0.9871,0,0,0.9529,0.9582,0.9578,0.9593,0.9628,0.9632,0.963,0.9648,0.9651,0.9669,0.9669,0.9679,0.9703,0.9714,0.9739,0.9734,0.9697,0.9759,0.976,0.9748,0.9673,0.9655,0.9648,0.9715,0.9714,0.9713,0.9671,0,0.9479,0.9481,0.9518,0.9508,0.9514,0.956,0.9559,0.958,0.9603,0.9611,0.9635,0.9643,0.9673,0.968,0.9676,0.9702,0.9682,0.9705,0.9715,0.9715,0.9709,0.9641,0.9621,0.958,0.9666,0.9665,0.9665,0,0.9421,0.9439,0.9431,0.9469,0.9473,0.9471,0.9491,0.9498,0.9523,0.9541,0.9554,0.9585,0.9586,0.9616,0.9618,0.9633,0.9639,0.9653,0.9652,0.9655,0.9687,0.9642,0.9568,0.9562,0.9657,0.9658,0.9658,0,0.9352,0.9373,0.9373,0.9383,0.9427,0.9425,0.9443,0.947,0.9479,0.9497,0.9503,0.9519,0.9528,0.954,0.9574,0.9593,0.9573,0.9606,0.9588,0.9587,0.9581,0.9581,0.9508,0.9584,0.9584,0.9584,0.9584,0,0.9292,0.9286,0.9343,0.9342,0.9337,0.9379,0.9372,0.9394,0.9419,0.9423,0.9463,0.9466,0.951,0.9518,0.9545,0.9544,0.9547,0.9561,0.9568,0.9558,0.9556,0.9563,0.9567,0.9583,0.9583,0.9583,0.9584,0,0.9214,0.9252,0.9254,0.9296,0.9307,0.9301,0.9337,0.9338,0.9365,0.937,0.9373,0.9414,0.9426,0.9462,0.9481,0.9499,0.9491,0.9504,0.9483,0.9488,0.9468,0.947,0.9396,0.9389,0.9469,0.9468,0.9468,0,0.9174,0.9171,0.9214,0.9221,0.9238,0.9248,0.9259,0.93,0.931,0.934,0.9337,0.9353,0.9368,0.9384,0.9415,0.9431,0.9445,0.9419,0.9448,0.9439,0.9447,0.9447,0.9447,0.9412,0.9411,0.941,0.941,0,0.91,0.912,0.9134,0.9155,0.9167,0.9185,0.9206,0.9209,0.9256,0.9264,0.9278,0.929,0.9312,0.9327,0.9349,0.9366,0.9396,0.9401,0.9397,0.9387,0.9376,0.9383,0.9466,0.9402,0.9403,0.9403,0.9404,0.9404,0.9041,0.9041,0.9072,0.9087,0.9108,0.9127,0.9131,0.9159,0.9172,0.9195,0.9219,0.923,0.9258,0.929,0.9306,0.9315,0.9331,0.9326,0.9325,0.9323,0.9319,0.9374,0.9319,0.9319,0.932,0.932,0.932,0,0.897,0.8993,0.9006,0.9036,0.9048,0.9077,0.9102,0.9109,0.912,0.9144,0.9159,0.9175,0.9191,0.9224,0.9243,0.9244,0.9258,0.9248,0.9248,0.9252,0.9303,0.9305,0.9236,0.9236,0.9236,0.9236,0.9236,0.9236,0.8934,0.8937,0.896,0.8974,0.8997,0.901,0.9022,0.904,0.906,0.9078,0.9092,0.9114,0.9142,0.9164,0.9179,0.9189,0.9194,0.9179,0.9193,0.924,0.9248,0.9256,0.9257,0.918,0.918,0.9141,0.9141,0.9141]}]]